Snowfall_Accumulation
0.0 0.0 0.0 0.0 0.0 0.0 0.0 0.0 0.0 0.0 0.0 0.0 0.0 0.0 0.0 0.0 0.0 0.0 0.0 0.0 0.0 0.0 0.0 0.0 0.0 0.0 0.0 0.0 0.0 0.0 0.0 0.0 0.0 0.0 0.0 0.0 0.0 0.0 0.0 0.0 0.0 0.0 0.0 0.0
0.0 0.0 0.0 0.0 0.0 0.0 0.0 0.0 0.0 0.0 0.0 0.0 0.0 0.0 0.0 0.0 0.0 0.0 0.0 0.0 0.0 0.0 0.0 0.0 0.0 0.0 0.0 0.0 0.0 0.0 0.0 0.0 0.0 0.0 0.0 0.0 0.0 0.0 0.0 0.0 0.0 0.0 0.0 0.0
0.0 0.0 0.0 0.0 0.0 0.0 0.0 0.0 0.0 0.0 0.0 0.0 0.0 0.0 0.0 0.0 0.0 0.0 0.0 0.0 0.0 0.0 0.0 0.0 0.0 0.0 0.0 0.0 0.0 0.0 0.0 0.0 0.0 0.0 0.0 0.0 0.0 0.0 0.0 0.0 0.0 0.0 0.0 0.0
0.0 0.0 0.0 0.0 0.0 0.0 0.0 0.0 0.0 0.0 0.0 0.5 0.0 1.5 0.0 0.0 0.0 0.0 0.0 0.0 0.0 0.0 0.0 0.0 0.0 0.0 0.0 0.0 0.0 0.0 0.0 0.0 0.0 0.0 0.0 0.0 0.0 0.0 0.0 0.0 0.0 0.0 0.0 0.0
0.0 0.0 0.0 0.0 0.0 0.0 0.0 0.0 0.0 0.0 0.1 0.1 0.0 0.2 0.0 0.0 0.0 0.0 0.0 0.0 0.0 0.0 0.0 0.0 0.0 0.0 0.0 0.0 0.0 0.0 0.0 0.0 0.0 0.0 0.0 0.0 0.0 0.0 0.0 0.0 0.0 0.0 0.0 0.0
0.0 0.0 0.0 0.0 0.0 0.0 0.0 0.0 0.0 0.0 0.0 5.5 0.0 0.0 0.0 0.0 0.0 0.0 0.0 0.0 0.0 0.0 0.0 0.0 0.0 0.0 0.0 0.0 0.0 0.0 0.0 0.0 0.0 0.0 0.0 0.0 0.0 0.0 0.0 0.0 0.0 0.0 0.0 0.0
0.0 0.0 0.0 0.0 0.0 0.0 0.0 0.1 10.2 13.7 21.5 7.9 0.0 0.0 0.0 0.0 0.0 0.0 0.0 0.0 0.0 0.0 0.0 0.0 0.0 0.0 0.0 0.0 0.0 0.0 0.0 0.0 0.0 0.0 0.0 0.0 0.0 0.0 0.0 0.0 0.0 0.0 0.0 0.0
0.3 1.0 0.0 0.0 0.0 0.0 0.0 0.3 4.6 7.9 6.5 1.0 0.0 1.8 0.0 0.0 0.0 0.0 0.0 0.0 0.0 0.0 0.0 0.0 0.0 0.0 0.0 0.0 0.0 0.0 0.0 0.0 0.0 0.0 0.0 0.0 0.0 0.0 0.0 0.0 0.0 0.0 0.0 0.0
0.3 0.1 0.0 0.0 0.0 0.0 0.1 1.7 0.0 5.7 3.6 3.6 0.1 0.0 0.0 0.0 0.0 0.0 0.0 0.0 0.0 0.0 0.0 0.0 0.0 0.0 0.0 0.0 0.0 0.0 0.0 0.0 0.0 0.0 0.0 0.0 0.0 0.0 0.0 0.0 0.0 0.0 0.0 0.0
0.0 0.9 0.0 0.0 0.0 0.0 0.0 0.0 4.3 4.2 12.4 5.5 0.9 0.1 0.0 0.0 0.0 0.0 0.0 0.0 0.0 0.0 0.0 0.0 0.0 0.0 0.0 0.0 0.0 0.0 0.0 0.0 0.0 0.0 0.0 0.0 0.0 0.0 0.0 0.0 0.0 0.0 0.0 0.0
0.0 0.4 0.0 0.0 0.0 0.0 0.5 1.7 1.0 0.6 1.6 5.5 4.2 0.6 0.0 0.0 0.0 0.0 0.0 0.0 0.0 0.0 0.0 0.0 0.0 0.0 0.0 0.0 0.0 0.0 0.0 0.0 0.0 0.0 0.0 0.0 0.0 0.0 0.0 0.0 0.0 0.0 0.0 0.0
0.0 0.2 1.9 0.0 0.0 0.0 0.0 0.0 0.1 6.5 2.1 0.6 2.9 2.1 0.0 0.0 0.0 0.0 0.0 0.0 0.0 0.0 0.0 0.0 0.0 0.0 0.0 0.0 0.0 0.0 0.0 0.0 0.0 0.0 0.0 0.0 0.0 0.0 0.0 0.0 0.0 0.0 0.0 0.0
0.3 3.3 7.0 2.6 1.6 0.0 0.0 0.0 0.1 1.3 2.0 2.6 13.8 1.8 0.0 0.0 0.0 0.0 0.0 0.0 0.0 0.0 0.0 0.0 0.0 0.0 0.0 0.0 0.0 0.0 0.0 0.0 0.0 0.0 0.0 0.0 0.0 0.0 0.4 1.2 0.4 0.1 0.5 0.5
nan 1.8 4.0 1.5 0.1 0.1 0.1 0.0 0.0 5.2 11.6 4.7 2.1 2.9 0.0 0.0 0.4 0.0 0.0 0.0 0.0 0.0 0.0 0.0 0.0 0.0 0.0 0.0 0.0 0.0 0.1 0.0 0.0 0.0 0.0 0.1 0.1 0.1 0.5 1.6 3.1 2.9 1.3 0.9
0.5 6.5 1.1 0.7 0.1 0.1 0.1 0.1 0.1 1.9 2.5 8.8 1.1 4.5 3.5 3.3 6.7 2.5 0.4 0.0 0.0 0.0 0.0 0.1 0.1 0.1 0.1 0.2 0.2 1.0 0.4 0.1 0.0 0.1 1.3 3.0 1.4 1.3 2.7 4.9 5.1 4.4 2.9 2.0
0.5 5.9 1.0 3.7 0.3 0.2 0.7 0.0 0.0 0.1 1.1 0.3 0.1 0.3 0.0 0.0 0.0 1.2 1.0 0.9 0.3 1.2 1.1 1.0 0.6 0.6 0.3 1.1 1.5 2.7 3.2 1.9 0.4 1.8 5.8 4.8 5.0 4.5 5.0 7.6 6.9 5.9 5.0 4.7
2.9 5.2 8.9 13.8 0.3 0.8 13.2 0.0 0.0 0.8 0.4 2.6 3.7 1.4 0.1 1.6 1.5 3.6 1.8 2.4 2.8 2.9 2.8 1.8 2.3 2.8 0.9 2.8 1.4 5.6 5.0 2.1 4.5 5.2 7.2 8.0 8.7 7.0 7.7 7.1 7.0 6.2 5.1 3.8
6.0 5.0 5.0 18.5 6.4 40.2 1.1 0.0 0.0 0.1 0.0 0.2 0.4 0.6 0.0 6.1 0.7 1.1 1.5 2.5 2.9 4.0 4.2 3.6 2.3 2.9 2.4 2.0 3.0 4.0 4.2 5.2 7.1 6.9 7.8 7.5 8.2 7.3 6.4 6.7 6.5 6.3 4.0 4.6
1.4 2.3 25.7 39.6 19.1 0.3 0.0 0.0 0.0 0.3 0.2 0.0 0.0 0.0 0.0 0.0 0.0 0.0 0.9 2.7 4.5 4.8 4.9 4.6 4.2 4.8 4.7 5.9 5.3 6.0 7.5 9.1 7.4 8.3 7.8 7.7 6.5 8.1 7.5 7.5 7.5 4.6 2.7 1.6
1.2 1.8 8.3 32.5 30.2 23.7 0.0 0.0 0.0 0.0 0.7 0.0 0.0 0.0 0.0 0.0 0.2 0.5 3.6 2.8 4.5 5.9 7.2 8.8 7.7 8.4 6.2 6.6 4.8 4.0 6.2 6.1 7.3 6.4 6.7 6.4 5.9 5.5 7.0 4.6 5.8 5.4 2.5 2.7
17.5 24.8 38.4 25.2 28.6 9.9 0.0 0.0 0.0 3.8 0.4 0.0 0.0 0.0 0.0 0.4 1.0 1.8 3.0 2.3 3.1 5.0 6.7 6.4 5.7 5.9 6.8 8.0 3.6 4.2 4.1 4.3 3.6 3.1 3.8 4.4 3.6 3.6 2.9 2.1 1.6 2.0 2.3 2.4
6.2 16.2 29.9 22.7 30.0 32.8 0.0 0.2 1.3 0.6 0.1 0.2 0.0 0.0 0.1 0.0 0.0 0.9 1.0 2.0 2.2 3.4 4.6 4.8 2.7 4.1 7.7 6.7 1.2 2.5 1.3 3.3 2.6 1.4 1.6 2.1 2.2 1.4 1.3 1.2 0.6 1.6 0.9 0.8
7.7 4.6 5.6 5.2 4.6 0.5 0.1 1.5 1.2 2.2 0.8 0.2 0.1 0.0 0.0 0.0 0.0 0.0 0.1 0.1 0.1 0.3 0.4 1.4 0.5 0.3 1.1 1.8 0.1 0.1 2.1 1.6 1.8 1.7 3.0 2.6 2.1 1.5 1.2 1.0 0.4 1.4 0.3 1.2
1.4 1.8 2.4 2.6 0.4 0.4 1.0 1.1 1.0 0.7 0.9 0.5 0.3 0.3 0.1 0.2 0.0 0.0 0.0 0.1 0.1 0.1 0.4 0.9 0.9 0.6 0.4 0.4 0.5 0.5 0.8 0.8 3.5 3.5 2.1 1.2 1.3 0.7 0.8 1.2 1.3 1.9 2.0 2.1
0.6 0.7 1.8 1.2 0.1 0.3 0.6 0.3 0.4 0.2 0.3 0.4 0.6 1.0 0.4 0.2 0.0 0.1 0.1 0.2 0.1 0.3 0.6 1.1 1.3 0.8 0.6 0.6 0.7 1.5 1.3 1.6 2.6 3.1 1.4 1.0 1.8 2.0 1.3 1.2 1.7 1.5 0.5 1.7
0.3 0.2 0.7 0.5 0.1 0.1 0.1 0.1 0.1 0.2 0.3 0.2 0.5 1.5 0.2 0.5 0.5 0.8 0.6 0.5 0.7 1.2 1.5 1.7 1.9 1.6 1.5 2.0 2.3 2.9 3.6 3.6 4.3 2.3 3.1 2.7 2.7 2.3 2.0 2.1 2.2 nan nan nan
Water_Equivalent
0.00 0.00 0.00 0.00 0.00 0.00 0.00 0.00 0.00 0.00 0.00 0.00 0.00 0.00 0.00 0.00 0.00 0.00 0.00 0.00 0.00 0.00 0.00 0.00 0.00 0.00 0.00 0.00 0.00 0.00 0.00 0.00 0.00 0.00 0.00 0.00 0.00 0.00 0.00 0.00 0.00 0.00 0.00 0.00
0.00 0.00 0.00 0.00 0.00 0.00 0.00 0.00 0.00 0.00 0.00 0.00 0.00 0.00 0.00 0.00 0.00 0.00 0.00 0.00 0.00 0.00 0.00 0.00 0.00 0.00 0.00 0.00 0.00 0.00 0.00 0.00 0.00 0.00 0.00 0.00 0.00 0.00 0.00 0.00 0.00 0.00 0.00 0.00
0.00 0.00 0.00 0.00 0.00 0.00 0.00 0.00 0.00 0.00 0.00 0.00 0.00 0.00 0.00 0.00 0.00 0.00 0.00 0.00 0.00 0.00 0.00 0.00 0.00 0.00 0.00 0.00 0.00 0.00 0.00 0.00 0.00 0.00 0.00 0.00 0.00 0.00 0.00 0.00 0.00 0.00 0.00 0.00
0.00 0.00 0.00 0.00 0.00 0.00 0.00 0.00 0.00 0.00 0.01 0.15 0.00 0.40 0.00 0.00 0.00 0.00 0.00 0.00 0.00 0.00 0.00 0.00 0.00 0.00 0.00 0.00 0.00 0.00 0.00 0.00 0.00 0.00 0.00 0.00 0.00 0.00 0.00 0.00 0.00 0.00 0.00 0.00
0.00 0.00 0.00 0.00 0.00 0.00 0.01 0.00 0.00 0.00 0.03 0.02 0.00 0.06 0.00 0.00 0.00 0.00 0.00 0.00 0.00 0.00 0.00 0.00 0.00 0.00 0.00 0.00 0.00 0.00 0.00 0.00 0.00 0.00 0.00 0.00 0.00 0.00 0.00 0.00 0.00 0.00 0.00 0.00
0.00 0.00 0.00 0.00 0.00 0.00 0.00 0.00 0.00 0.00 0.00 1.29 0.00 0.00 0.00 0.00 0.00 0.00 0.00 0.00 0.00 0.00 0.00 0.00 0.00 0.00 0.00 0.00 0.00 0.00 0.00 0.00 0.00 0.00 0.00 0.00 0.00 0.00 0.00 0.00 0.00 0.00 0.00 0.00
0.00 0.00 0.00 0.00 0.00 0.00 0.00 0.02 2.48 3.32 4.44 1.70 0.00 0.00 0.00 0.00 0.00 0.00 0.00 0.00 0.00 0.00 0.00 0.00 0.00 0.00 0.00 0.00 0.00 0.00 0.00 0.00 0.00 0.00 0.00 0.00 0.00 0.00 0.00 0.00 0.00 0.00 0.00 0.00
0.09 0.32 0.00 0.00 0.00 0.01 0.00 0.10 1.05 1.31 1.06 0.25 0.00 0.42 0.00 0.00 0.00 0.00 0.00 0.00 0.00 0.00 0.00 0.00 0.00 0.00 0.00 0.00 0.00 0.00 0.00 0.00 0.00 0.00 0.00 0.00 0.00 0.00 0.00 0.00 0.00 0.00 0.00 0.00
0.08 0.04 0.00 0.00 0.00 0.00 0.03 0.50 0.00 1.07 0.64 0.66 0.06 0.00 0.00 0.00 0.00 0.00 0.00 0.00 0.00 0.00 0.00 0.00 0.00 0.00 0.00 0.00 0.00 0.00 0.00 0.00 0.00 0.00 0.00 0.00 0.00 0.00 0.00 0.00 0.00 0.00 0.00 0.00
0.01 0.17 0.00 0.00 0.00 0.00 0.01 0.00 0.74 1.09 1.94 0.81 0.23 0.02 0.00 0.00 0.00 0.00 0.00 0.00 0.00 0.00 0.00 0.00 0.00 0.00 0.00 0.00 0.00 0.00 0.00 0.00 0.00 0.00 0.00 0.00 0.00 0.00 0.00 0.00 0.00 0.00 0.00 0.00
0.00 0.07 0.01 0.00 0.02 0.02 0.18 0.53 0.29 0.15 0.41 0.98 0.68 0.15 0.00 0.00 0.00 0.00 0.00 0.00 0.00 0.00 0.00 0.00 0.00 0.00 0.00 0.00 0.00 0.00 0.00 0.00 0.00 0.00 0.00 0.00 0.00 0.00 0.00 0.00 0.00 0.00 0.00 0.00
0.00 0.05 0.44 0.01 0.00 0.00 0.00 0.01 0.02 1.15 0.35 0.16 0.53 0.27 0.00 0.00 0.00 0.00 0.00 0.00 0.00 0.00 0.00 0.00 0.00 0.00 0.00 0.00 0.00 0.00 0.00 0.00 0.00 0.00 0.00 0.00 0.00 0.00 0.00 0.00 0.00 0.00 0.01 0.00
0.11 0.85 1.44 0.57 0.34 0.00 0.00 0.00 0.01 0.23 0.46 0.36 1.98 0.31 0.00 0.00 0.00 0.00 0.01 0.01 0.01 0.01 0.00 0.00 0.00 0.00 0.00 0.00 0.00 0.00 0.00 0.00 0.00 0.00 0.00 0.00 0.01 0.02 0.13 0.41 0.14 0.03 0.19 0.19
nan 0.40 0.66 0.28 0.02 0.03 0.02 0.00 0.00 0.78 1.87 0.80 0.37 0.53 0.00 0.01 0.10 0.00 0.00 0.00 0.00 0.00 0.00 0.00 0.00 0.00 0.00 0.01 0.01 0.01 0.01 0.00 0.00 0.00 0.01 0.02 0.04 0.03 0.17 0.59 1.18 1.12 0.54 0.35
0.09 1.28 0.21 0.15 0.02 0.02 0.02 0.03 0.02 0.26 0.41 1.27 0.21 0.64 0.66 0.74 1.57 0.71 0.12 0.01 0.01 0.01 0.01 0.02 0.02 0.02 0.02 0.06 0.07 0.29 0.13 0.02 0.02 0.03 0.41 0.93 0.46 0.42 0.86 1.47 1.54 1.37 1.03 0.75
0.09 1.30 0.15 0.64 0.06 0.05 0.10 0.01 0.01 0.02 0.23 0.05 0.02 0.05 0.00 0.00 0.00 0.34 0.28 0.23 0.07 0.27 0.26 0.24 0.16 0.15 0.10 0.29 0.40 0.73 0.91 0.56 0.11 0.53 1.42 1.34 1.48 1.37 1.33 1.86 1.47 1.30 1.11 1.29
0.46 0.91 2.17 3.09 0.04 0.11 2.29 0.00 0.00 0.15 0.08 0.40 0.52 0.23 0.02 0.32 0.34 0.91 0.43 0.56 0.64 0.69 0.66 0.44 0.58 0.75 0.24 0.65 0.37 1.27 1.19 0.59 1.14 1.28 1.97 2.19 2.21 1.53 1.62 1.53 1.53 1.24 1.01 0.97
0.99 1.16 1.21 4.07 1.60 6.80 0.22 0.00 0.00 0.01 0.01 0.05 0.09 0.13 0.01 1.29 0.19 0.31 0.39 0.57 0.65 0.78 0.90 0.79 0.57 0.80 0.67 0.57 0.77 1.02 1.14 1.38 1.71 1.63 1.80 1.74 1.88 1.48 1.35 1.32 1.23 1.41 0.95 1.16
0.22 0.42 4.64 7.22 3.39 0.07 0.00 0.00 0.00 0.05 0.03 0.00 0.01 0.00 0.00 0.01 0.00 0.00 0.26 0.69 1.00 1.08 1.16 1.07 1.03 1.20 1.25 1.45 1.27 1.34 1.56 2.00 1.68 1.77 1.65 1.63 1.39 1.63 1.36 1.26 1.37 0.95 0.53 0.33
0.18 0.27 1.44 6.28 5.33 3.73 0.00 0.00 0.00 0.00 0.13 0.00 0.00 0.00 0.00 0.00 0.04 0.16 0.79 0.64 0.84 1.08 1.30 1.63 1.58 1.81 1.26 1.34 0.93 0.71 1.04 1.03 1.29 1.22 1.32 1.29 1.20 1.13 1.12 0.78 0.93 1.11 0.55 0.58
3.10 4.93 7.19 4.96 5.31 1.98 0.00 0.00 0.00 0.60 0.07 0.00 0.00 0.00 0.00 0.07 0.31 0.45 0.66 0.50 0.70 0.95 1.15 1.15 0.96 0.95 1.16 1.44 0.63 0.68 0.65 0.66 0.64 0.55 0.68 0.80 0.67 0.68 0.56 0.40 0.30 0.34 0.39 0.42
0.86 2.70 5.50 4.06 4.99 4.95 0.00 0.03 0.14 0.09 0.01 0.03 0.00 0.00 0.01 0.00 0.01 0.20 0.20 0.37 0.43 0.57 0.76 0.80 0.41 0.58 1.09 1.08 0.19 0.37 0.19 0.54 0.43 0.24 0.27 0.34 0.38 0.25 0.25 0.24 0.11 0.27 0.15 0.13
0.98 0.57 0.75 0.57 0.66 0.08 0.03 0.25 0.22 0.34 0.13 0.04 0.02 0.00 0.01 0.01 0.00 0.01 0.02 0.02 0.03 0.05 0.07 0.24 0.08 0.05 0.15 0.24 0.02 0.01 0.30 0.25 0.29 0.30 0.59 0.50 0.38 0.29 0.23 0.23 0.10 0.39 0.07 0.30
0.15 0.23 0.35 0.29 0.06 0.06 0.12 0.19 0.18 0.13 0.14 0.08 0.05 0.05 0.02 0.02 0.00 0.00 0.01 0.01 0.01 0.03 0.07 0.16 0.14 0.10 0.07 0.06 0.07 0.08 0.13 0.14 0.75 0.73 0.34 0.19 0.24 0.16 0.15 0.33 0.36 0.53 0.48 0.44
0.10 0.11 0.29 0.23 0.01 0.05 0.09 0.05 0.07 0.04 0.05 0.05 0.08 0.14 0.05 0.03 0.00 0.01 0.03 0.03 0.02 0.06 0.09 0.16 0.18 0.11 0.09 0.08 0.10 0.23 0.19 0.27 0.44 0.50 0.18 0.18 0.34 0.39 0.23 0.24 0.42 0.36 0.12 0.40
0.06 0.02 0.12 0.11 0.01 0.03 0.02 0.02 0.02 0.03 0.03 0.03 0.06 0.22 0.04 0.07 0.07 0.13 0.11 0.09 0.12 0.17 0.21 0.21 0.22 0.17 0.16 0.22 0.26 0.37 0.53 0.55 0.61 0.27 0.46 0.45 0.47 0.41 0.35 0.37 0.41 nan nan nan
SL_Ratio
nan nan nan nan nan nan nan nan nan nan nan nan nan nan nan nan nan nan nan nan nan nan nan nan nan nan nan nan nan nan nan nan nan nan nan nan nan nan nan nan nan nan nan nan
nan nan nan nan nan nan nan nan 2.1 nan nan nan nan nan nan nan nan nan nan nan nan nan nan nan nan nan nan nan nan nan nan nan nan nan nan nan nan nan nan nan nan nan nan nan
2.9 nan nan nan nan nan nan nan nan nan nan nan nan nan nan nan nan nan nan nan nan nan nan nan nan nan nan nan nan nan nan nan nan nan nan nan nan nan nan nan nan nan nan nan
nan nan nan nan nan nan nan nan nan nan 2.6 3.1 nan 3.8 nan nan nan nan nan nan nan nan nan nan nan nan nan nan nan nan nan nan nan nan nan nan nan nan nan nan nan nan nan nan
nan nan nan nan nan nan 2.9 nan nan nan 2.7 3.2 nan 3.3 nan nan nan nan nan nan nan nan nan nan nan nan nan nan nan nan nan nan nan nan nan nan nan nan nan nan nan nan nan nan
nan nan nan nan nan nan nan nan nan 2.5 5.0 4.2 nan nan nan nan nan nan nan nan nan nan nan nan nan nan nan nan nan nan nan nan nan nan nan nan nan nan nan nan nan nan nan nan
nan nan nan nan nan nan nan 2.9 4.1 4.1 4.9 4.6 nan nan nan nan nan nan nan nan nan nan nan nan nan nan nan nan nan nan nan nan nan nan nan nan nan nan nan nan nan nan nan nan
2.9 3.3 nan nan nan 2.9 nan 3.2 4.4 6.0 6.1 3.8 nan 4.4 nan nan nan nan nan nan nan nan nan nan nan nan nan nan nan nan nan nan nan nan nan nan nan nan nan nan nan nan nan nan
3.4 2.9 nan nan nan nan 3.4 3.4 nan 5.3 5.6 5.5 2.7 5.0 nan nan nan nan nan nan nan nan nan nan nan nan nan nan nan nan nan nan nan nan nan nan nan nan nan nan nan nan nan nan
3.9 5.1 nan nan nan nan 3.3 nan 5.8 3.8 6.4 6.9 4.1 3.4 nan nan nan nan nan nan nan nan nan nan nan nan nan nan nan nan nan nan nan nan nan nan nan nan nan nan nan nan nan nan
nan 4.7 3.7 5.0 2.5 2.8 2.9 3.2 3.5 3.8 4.0 5.6 6.1 3.9 nan nan nan nan nan nan nan nan nan nan nan nan nan nan nan nan nan nan nan nan nan nan nan nan nan nan nan nan nan nan
nan 3.7 4.2 3.3 nan nan 0.0 3.2 3.6 5.6 5.9 3.9 5.5 7.6 nan nan nan nan nan nan nan nan nan nan nan nan nan nan nan nan nan nan nan nan nan nan nan nan nan 3.0 2.5 nan 2.2 nan
2.8 3.9 4.9 4.6 4.6 3.0 5.0 nan 5.2 5.6 4.5 7.2 7.0 5.6 nan nan nan nan 3.6 4.4 4.3 3.8 nan nan 0.0 5.0 5.0 5.0 3.8 3.3 nan nan nan nan nan 0.0 2.7 2.5 2.8 2.8 2.7 2.4 2.5 2.6
nan 4.6 6.0 5.5 5.7 4.4 4.0 nan nan 6.6 6.2 5.9 5.6 5.5 3.3 3.3 3.7 nan nan nan 5.0 nan 4.0 3.6 5.0 4.3 3.0 3.1 3.4 3.9 4.3 4.2 2.5 3.0 2.5 2.8 2.8 2.9 2.8 2.7 2.7 2.6 2.5 2.5
5.4 5.1 5.2 4.8 3.5 3.4 4.3 4.8 4.5 7.1 6.2 6.9 5.1 6.9 5.3 4.5 4.3 3.6 3.4 2.8 3.5 3.7 3.6 3.8 3.8 3.8 3.7 3.4 3.2 3.4 3.3 3.0 2.7 2.8 3.1 3.3 3.0 3.0 3.2 3.3 3.3 3.2 2.8 2.7
5.3 4.5 6.7 5.8 4.9 5.1 6.8 3.9 4.4 4.4 5.0 5.1 4.7 5.6 nan nan nan 3.7 3.4 3.7 3.7 4.2 4.1 4.1 3.7 3.6 3.7 3.9 3.8 3.7 3.5 3.5 3.4 3.3 4.1 3.6 3.4 3.3 3.7 4.1 4.7 4.5 4.5 3.7
6.4 5.7 4.1 4.5 5.7 7.2 5.7 8.0 4.0 5.5 4.5 6.4 7.1 6.0 3.0 5.0 4.4 4.0 4.2 4.3 4.4 4.2 4.3 4.0 4.0 3.7 3.7 4.2 3.9 4.4 4.2 3.6 3.9 4.1 3.7 3.7 3.9 4.6 4.7 4.6 4.6 5.0 5.1 3.9
6.0 4.3 4.1 4.6 4.0 5.9 4.8 nan nan 4.5 3.9 4.0 4.5 4.7 3.3 4.7 3.7 3.5 3.9 4.4 4.4 5.2 4.6 4.6 4.1 3.6 3.6 3.5 3.9 3.9 3.7 3.8 4.1 4.2 4.3 4.3 4.3 4.9 4.7 5.1 5.2 4.5 4.2 3.9
6.1 5.6 5.5 5.5 5.6 4.3 nan nan 2.5 5.3 5.4 nan 5.0 nan nan 3.3 nan 2.9 3.6 3.9 4.5 4.4 4.3 4.2 4.0 4.0 3.7 4.0 4.2 4.5 4.8 4.5 4.4 4.7 4.7 4.7 4.7 5.0 5.5 6.0 5.4 4.9 5.0 4.9
6.7 6.9 5.8 5.2 5.7 6.4 nan nan nan nan 5.3 nan 3.3 nan nan nan 5.2 3.1 4.6 4.4 5.4 5.4 5.5 5.4 4.9 4.7 4.9 4.9 5.1 5.7 5.9 5.9 5.6 5.3 5.1 4.9 4.9 4.9 6.2 5.9 6.2 4.9 4.5 4.7
5.6 5.0 5.3 5.1 5.4 5.0 5.0 5.0 nan 6.3 6.8 5.0 nan nan 5.0 5.4 3.3 3.9 4.5 4.5 4.5 5.2 5.8 5.6 5.9 6.2 5.8 5.6 5.7 6.2 6.2 6.5 5.6 5.6 5.5 5.5 5.4 5.3 5.2 5.3 5.1 5.8 6.0 5.7
7.2 6.0 5.4 5.6 6.0 6.6 4.3 5.4 9.8 6.2 5.2 5.2 5.0 5.0 5.6 nan 3.5 4.7 4.7 5.3 5.2 5.9 6.1 6.0 6.6 7.1 7.1 6.2 6.4 6.8 6.8 6.1 6.0 6.0 6.0 6.1 5.7 5.7 5.1 4.8 5.4 5.8 6.1 6.1
7.9 8.0 7.5 9.2 6.9 6.3 5.3 6.0 5.2 6.4 6.0 5.5 5.6 nan 5.0 6.3 nan 5.0 5.2 4.4 4.4 4.8 5.3 5.9 6.1 6.2 7.5 7.6 4.2 5.0 6.9 6.5 6.3 5.5 5.1 5.2 5.6 5.1 5.2 4.3 4.6 3.7 3.8 4.1
9.0 7.8 6.8 9.1 6.0 7.3 7.8 6.0 5.9 5.6 6.1 6.0 5.7 6.0 6.8 7.6 nan 10.0 7.5 6.0 5.6 4.9 5.4 5.6 6.3 6.5 5.9 5.7 6.1 5.9 6.2 5.9 4.7 4.8 6.0 6.3 5.6 4.6 5.2 3.7 3.5 3.6 4.2 4.7
5.6 6.7 6.3 5.3 6.0 6.6 6.4 5.0 5.3 6.0 6.9 6.8 6.6 7.3 7.9 8.7 10.0 7.1 5.2 4.8 4.9 5.5 6.5 6.7 7.0 6.9 6.9 6.7 6.9 6.5 6.7 6.0 6.0 6.2 7.4 5.7 5.1 5.1 5.4 5.1 4.0 4.3 4.0 4.2
4.6 6.9 6.3 4.6 5.3 5.3 5.6 5.6 6.0 8.1 10.5 9.4 7.4 7.0 6.4 7.9 7.2 5.8 5.3 5.6 5.9 7.1 7.5 8.1 8.8 9.1 9.2 8.9 8.7 8.0 6.9 6.6 7.1 8.2 6.8 5.9 5.7 5.7 5.7 5.6 5.3 nan nan nan